Regional Weather Roundup
Issued by NWS

Home | Current Version | Previous Version | Graphics & Text | Print | Product List | Glossary On
Versions: 1 2 3 4 5 6 7 8 9 10 11 12 13 14 15 16 17 18 19 20 21 22 23 24 25 26 27 28 29 30 31 32 33 34 35 36 37 38 39 40 41 42 43 44 45 46 47 48 49 50
000
ASUS43 KMKX 261011
RWRWI

WISCONSIN REGIONAL WEATHER ROUNDUP
NATIONAL WEATHER SERVICE MILWAUKEE/SULLIVAN WI
500 AM CDT WED APR 26 2017

NOTE: "FAIR" INDICATES FEW OR NO CLOUDS BELOW 12,000 FEET WITH NO
SIGNIFICANT WEATHER AND/OR OBSTRUCTIONS TO VISIBILITY.

WIZ001-002-006>008-014>016-023>028-261100-
NORTHWEST WISCONSIN

CITY           SKY/WX    TMP DP  RH WIND       PRES   REMARKS
SUPERIOR ARPT  LGT SNOW  32  31  96 E24G33    29.67F WCI  19
ASHLAND        FRZ RAIN  32  30  92 NE17G28   29.66S WCI  21
HAYWARD        FRZ RAIN  33  30  88 NE13      29.55S FOG     WCI  24
SIREN          MIX PCPN  33  32  96 NE16G22   29.54F WCI  22
CUMBERLAND     LGT RAIN  34  32  93 N12G20    29.50S WCI  25
RICE LAKE      DRIZZLE   37  35  94 N16G22    29.51S WCI  27
CHETEK         DRIZZLE   39  38  96 NE7       29.48F WCI  34
LADYSMITH      LGT RAIN  38  37  94 N14       29.50F WCI  30
EAU CLAIRE     LGT RAIN  44  43  96 NE9       29.42F
MENOMONIE      DRIZZLE   42  42  99 N13       29.45F
NEW RICHMOND   RAIN      38  37  97 NE16G22   29.48S WCI  29
OSCEOLA        LGT RAIN  37  37 100 N10       29.53S WCI  30
$$

WIZ003>005-009-010-017-018-261100-
NORTH CENTRAL WISCONSIN

CITY           SKY/WX    TMP DP  RH WIND       PRES   REMARKS
MANITOWISH WTR DRIZZLE   34  34 100 NE8       29.54S WCI  27
ARBOR VITAE    RAIN      39  38  94 NE7G17    29.52F WCI  34
WOODRUFF       RAIN      39  38  94 NE7G17    29.52F WCI  34
RHINELANDER    LGT RAIN  44  44 100 NE10      29.51F
EAGLE RIVER    DRIZZLE   39  39 100 NE8       29.53F WCI  34
LAND O LAKES   RAIN      38  37  99 NE3       29.56S
PHILLIPS       LGT RAIN  36  36 100 NE9       29.50F WCI  29
TOMAHAWK       DRIZZLE   43  42  97 NE5       29.50S
MEDFORD        RAIN      50  49  97 NE9       29.44F
MERRILL        LGT RAIN  54  54 100 E5        29.47F
$$

WIZ029-030-035-036-043>047-261100-
CENTRAL WISCONSIN

CITY           SKY/WX    TMP DP  RH WIND       PRES   REMARKS
WAUSAU         CLOUDY    53  53 100 E7        29.44F
MOSINEE        RAIN      54  54 100 E9        29.46F
MARSHFIELD     LGT RAIN  56  53  90 E8        29.41F FOG
STEVENS POINT  CLOUDY    55  55 100 E7        29.44F
WAUPACA        CLOUDY    58  56  92 E6        29.46S
WAUTOMA        CLOUDY    58  55  90 E5        29.43
WISC RAPIDS    CLOUDY    57  57 100 E7        29.43F
CAMP DOUGLAS   FOG       52  52 100 CALM      29.39F VSB 3/4
$$

WIZ011>013-019>022-031-037>040-048>050-261100-
NORTHEAST WISCONSIN

CITY           SKY/WX    TMP DP  RH WIND       PRES   REMARKS
ANTIGO         CLOUDY    50  50 100 E10       29.49S
SHAWANO        LGT RAIN  53  50  91 NE9       29.48F
OCONTO         CLOUDY    47  46  96 CALM      29.51S
STURGEON BAY   CLOUDY    55  51  86 SE8       29.52S
GREEN BAY      CLOUDY    53  53 100 NE9       29.48F
MANITOWOC      CLOUDY    52  48  86 S14       29.51S
APPLETON       CLOUDY    55  50  82 E5        29.44F
CLINTONVILLE   CLOUDY    52  52 100 NE6       29.46F
OSHKOSH        CLOUDY    59  52  77 SE8       29.43F
$$

WIZ032>034-041-042-053>061-261100-
SOUTHWEST WISCONSIN

CITY           SKY/WX    TMP DP  RH WIND       PRES   REMARKS
LA CROSSE      CLOUDY    57  54  89 E5        29.38F
SPARTA         MOCLDY    52  52 100 CALM      29.40F FOG
VIROQUA        CLOUDY    54  54  99 E3        29.39F
BOSCOBEL       CLOUDY    57  55  93 CALM      29.36F
PRAIRIE DU CHI CLOUDY    57  56  97 CALM      29.36F FOG
PLATTEVILLE    CLOUDY    59  57  91 S7        29.39S
$$

WIZ056-057-062-063-064-067-068-261100-
SOUTH CENTRAL WISCONSIN

CITY           SKY/WX    TMP DP  RH WIND       PRES   REMARKS
REEDSBURG      CLOUDY    59  54  84 CALM      29.39F
BARABOO/DELLS  CLOUDY    59  51  75 E5        29.39F
LONE ROCK      CLOUDY    60  54  80 SE5       29.39F
MINERAL POINT  CLOUDY    61  55  82 SE9       29.39S
MADISON        CLOUDY    62  55  77 S7        29.40F
MIDDLETON      CLOUDY    60  55  83 SE3       29.41F
WATERTOWN      CLOUDY    60  55  82 E7        29.42F
MONROE         MOCLDY    63  52  67 S9        29.41F
JANESVILLE     PTCLDY    64  52  63 SE8       29.42F
$$

WIZ051-052-058>065-066-070>072-261100-
SOUTHEAST WISCONSIN

CITY           SKY/WX    TMP DP  RH WIND       PRES   REMARKS
MILWAUKEE      CLOUDY    59  52  77 SE9       29.47F
WAUKESHA       CLOUDY    59  50  72 SE8       29.46F
MILWAUKEE/TIMM CLOUDY    57  48  72 E3        29.46F
RACINE         CLOUDY    55  49  80 S13       29.49F
KENOSHA        CLOUDY    58  51  78 SE9       29.47F
FOND DU LAC    CLOUDY    61  51  70 SE12      29.43F
SHEBOYGAN      CLOUDY    53  49  86 S8        29.48F
WEST BEND      MOCLDY    55  52  88 SE5       29.46F
JUNEAU         CLOUDY    60  53  77 E8        29.44F
$$

LSZ147-162-261100-
LAKE SUPERIOR

STATION/POSITION TIME  TEMP    WIND        PRES    WAVE
                       AIR SEA DIR/SP/G            HT/PER
                 (UTC) (F)     (DEG/KT/KT) (MB)    (FT/S)
DEVILS ISLAND    1000   32      50/ 23/ 27 1005.9F
SAXON HARBOR     1002   34      50/ 21/ 27 1003.0F
$$

LMZ867-665-643>646-261100-
LAKE MICHIGAN

STATION/POSITION TIME  TEMP    WIND        PRES    WAVE
                       AIR SEA DIR/SP/G            HT/PER
                 (UTC) (F)     (DEG/KT/KT) (MB)    (FT/S)
CHAMBERS ISLAND  0940   41      10/  6/ 10 1000.3S
N MID LAKE BUOY  0950   41 37   90/ 14/ 14 1001.1F   2/ 4
NORTHPORT PIER   0940   43     110/  6/  9 1000.7F
KEWAUNEE LAKESHO 0948   53     170/ 10/ 14  999.1F
SHEBOYGAN LAKESH 1000   47     170/  9/ 10  998.6F
PORT WASHINGTON  0940   49     130/  3/  4  999.7F
MILWAUKEE LAKESH 0950   50     160/  7/  8   N/A
S MID LAKE BUOY  0850   48 41  120/ 12/ 12 1000.2R   1/ 3
KENOSHA   LAKESH 1000   51     180/ 10/ 13  998.3
$$

TC  - TEMPERATURE IN CELSIUS
VSB - VISIBILITY IN STATUTE MILES
WCI - WIND CHILL INDEX
HX  - HEAT INDEX




USA.gov is the U.S. government's official web portal to all federal, state and local government web resources and services.